Location: *
(60.1759°S, 155.0663°W)
Time: 15:59:16
(UTC+00:00)

Iridium 4 Rocket - Pass Details

Date: 17 September 2019
Orbit: 585 x 904 km, 86.9° (Epoch: 20 October)

Event Time Altitude Azimuth Distance (km) Brightness Sun altitude
Rises 13:18:03 0° 186° (S) 3,576 7.4 -22.4°
Reaches altitude 10° 13:20:33 10° 184° (S) 2,631 6.7 -22.1°
Maximum altitude 13:26:36 75° 98° (E) 943 4.0 -21.5°
Drops below altitude 10° 13:32:21 10° 12° (NNE) 2,512 5.9 -20.9°
Enters shadow 13:32:48 - 11° (NNE) 2,680 6.1 -20.9°
